| time (UTC) | temp F | wind direction | speed MPH | gust MPH | rain 1hr in | rain 24hr in | rain mn in | humidity % | barometer mb |
| 20260510061828 | 40 | 345 | 1.0 | 2.0 | 0.00 | 0.00 | 0.00 | 64 | 1010.6 |
| 20260510061325 | 40 | 2 | 1.0 | 2.0 | 0.00 | 0.00 | 0.00 | 63 | 1010.7 |
| 20260510060821 | 40 | 347 | 2.0 | 2.0 | 0.00 | 0.00 | 0.00 | 64 | 1010.6 |
| 20260510060319 | 40 | 341 | 1.0 | 3.0 | 0.00 | 0.00 | 0.00 | 64 | 1010.7 |
| 20260510055815 | 40 | 354 | 0.0 | 2.0 | 0.00 | 0.00 | 0.00 | 63 | 1010.7 |
| 20260510055314 | 41 | 337 | 0.0 | 2.0 | 0.00 | 0.00 | 0.00 | 63 | 1010.5 |
| 20260510054813 | 41 | 331 | 2.0 | 2.0 | 0.00 | 0.00 | 0.00 | 62 | 1010.3 |
| 20260510054309 | 42 | 356 | 2.0 | 3.0 | 0.00 | 0.00 | 0.00 | 61 | 1010.4 |
| 20260510053804 | 42 | 356 | 1.0 | 3.0 | 0.00 | 0.00 | 0.00 | 60 | 1010.3 |
| 20260510053259 | 43 | 339 | 1.0 | 3.0 | 0.00 | 0.00 | 0.00 | 58 | 1010.1 |
| 20260510052755 | 43 | 324 | 2.0 | 3.0 | 0.00 | 0.00 | 0.00 | 57 | 1010.0 |
| 20260510052246 | 43 | 16 | 1.0 | 5.0 | 0.00 | 0.00 | 0.00 | 57 | 1010.3 |
| 20260510051742 | 43 | 338 | 2.0 | 5.0 | 0.00 | 0.00 | 0.00 | 57 | 1010.1 |
| 20260510051239 | 42 | 358 | 1.0 | 3.0 | 0.00 | 0.00 | 0.00 | 59 | 1010.1 |
| 20260510050736 | 42 | 332 | 1.0 | 3.0 | 0.00 | 0.00 | 0.00 | 59 | 1010.1 |
| 20260510050233 | 42 | 4 | 0.0 | 2.0 | 0.00 | 0.00 | 0.00 | 59 | 1009.8 |
| 20260510045730 | 42 | 341 | 0.0 | 2.0 | 0.00 | 0.00 | 0.00 | 60 | 1009.6 |
| 20260510045226 | 42 | 338 | 0.0 | 2.0 | 0.00 | 0.00 | 0.00 | 61 | 1009.7 |
| 20260510044723 | 41 | 355 | 2.0 | 2.0 | 0.00 | 0.00 | 0.00 | 62 | 1009.6 |
| 20260510044221 | 42 | 355 | 0.0 | 2.0 | 0.00 | 0.00 | 0.00 | 62 | 1009.6 |
| 20260510043716 | 42 | 350 | 0.0 | 2.0 | 0.00 | 0.00 | 0.00 | 62 | 1009.6 |
| 20260510043213 | 42 | 356 | 1.0 | 2.0 | 0.00 | 0.00 | 0.00 | 61 | 1009.7 |
| 20260510042710 | 42 | 290 | 0.0 | 1.0 | 0.00 | 0.00 | 0.00 | 60 | 1009.4 |
| 20260510042206 | 42 | 31 | 0.0 | 2.0 | 0.00 | 0.00 | 0.00 | 62 | 1009.4 |
| 20260510041703 | 42 | 304 | 0.0 | 2.0 | 0.00 | 0.00 | 0.00 | 61 | 1009.5 |
| 20260510041201 | 42 | 318 | 0.0 | 2.0 | 0.00 | 0.00 | 0.00 | 62 | 1009.2 |
| 20260510040657 | 43 | 352 | 0.0 | 2.0 | 0.00 | 0.00 | 0.00 | 61 | 1009.2 |
| 20260510040154 | 43 | 326 | 0.0 | 1.0 | 0.00 | 0.00 | 0.00 | 61 | 1009.0 |
| 20260510035650 | 43 | 315 | 0.0 | 1.0 | 0.00 | 0.00 | 0.00 | 59 | 1009.2 |
| 20260510035145 | 43 | 312 | 0.0 | 2.0 | 0.00 | 0.00 | 0.00 | 59 | 1009.0 |
| 20260510034642 | 43 | 328 | 1.0 | 2.0 | 0.00 | 0.00 | 0.00 | 59 | 1009.3 |
| 20260510034139 | 42 | 13 | 0.0 | 2.0 | 0.00 | 0.00 | 0.00 | 60 | 1009.2 |
| 20260510033635 | 42 | 299 | 0.0 | 2.0 | 0.00 | 0.00 | 0.00 | 60 | 1009.0 |
| 20260510033133 | 42 | 323 | 0.0 | 2.0 | 0.00 | 0.00 | 0.00 | 60 | 1009.0 |
| 20260510032630 | 42 | 335 | 0.0 | 2.0 | 0.00 | 0.00 | 0.00 | 59 | 1009.1 |
| 20260510032125 | 42 | 292 | 0.0 | 2.0 | 0.00 | 0.00 | 0.00 | 59 | 1008.8 |
| 20260510031620 | 43 | 324 | 0.0 | 2.0 | 0.00 | 0.00 | 0.00 | 57 | 1008.8 |
| 20260510031117 | 44 | 308 | 0.0 | 2.0 | 0.00 | 0.00 | 0.00 | 55 | 1008.6 |
| 20260510030611 | 44 | 7 | 0.0 | 2.0 | 0.00 | 0.00 | 0.00 | 54 | 1008.7 |
| 20260510030109 | 45 | 321 | 0.0 | 2.0 | 0.00 | 0.00 | 0.00 | 52 | 1008.3 |
| 20260510025606 | 46 | 275 | 1.0 | 2.0 | 0.00 | 0.00 | 0.00 | 50 | 1008.3 |
| 20260510025103 | 46 | 312 | 0.0 | 2.0 | 0.00 | 0.00 | 0.00 | 50 | 1008.3 |
| 20260510024600 | 46 | 322 | 0.0 | 2.0 | 0.00 | 0.00 | 0.00 | 51 | 1008.1 |
| 20260510024056 | 47 | 293 | 1.0 | 2.0 | 0.00 | 0.00 | 0.00 | 49 | 1008.0 |
| 20260510023547 | 47 | 288 | 0.0 | 3.0 | 0.00 | 0.00 | 0.00 | 48 | 1007.9 |
| 20260510023044 | 47 | 289 | 2.0 | 2.0 | 0.00 | 0.00 | 0.00 | 47 | 1008.1 |
| 20260510022543 | 48 | 290 | 1.0 | 3.0 | 0.00 | 0.00 | 0.00 | 47 | 1008.0 |
| 20260510022037 | 48 | 325 | 0.0 | 2.0 | 0.00 | 0.00 | 0.00 | 48 | 1007.8 |
| 20260510021529 | 48 | 314 | 1.0 | 2.0 | 0.00 | 0.00 | 0.00 | 48 | 1007.8 |
| 20260510021027 | 49 | 327 | 0.0 | 2.0 | 0.00 | 0.00 | 0.00 | 46 | 1007.7 |
| 20260510020521 | 49 | 334 | 2.0 | 3.0 | 0.00 | 0.00 | 0.00 | 45 | 1007.5 |
| 20260510020017 | 49 | 342 | 0.0 | 2.0 | 0.00 | 0.00 | 0.00 | 44 | 1007.6 |
| 20260510015512 | 50 | 337 | 0.0 | 2.0 | 0.00 | 0.00 | 0.00 | 43 | 1007.3 |
| 20260510015008 | 50 | 306 | 2.0 | 3.0 | 0.00 | 0.00 | 0.00 | 42 | 1007.3 |
| 20260510014506 | 50 | 354 | 0.0 | 3.0 | 0.00 | 0.00 | 0.00 | 42 | 1007.2 |
| 20260510014003 | 51 | 264 | 1.0 | 4.0 | 0.00 | 0.00 | 0.00 | 41 | 1007.2 |
| 20260510013456 | 51 | 355 | 2.0 | 4.0 | 0.00 | 0.00 | 0.00 | 41 | 1007.1 |
| 20260510012952 | 52 | 8 | 2.0 | 5.0 | 0.00 | 0.00 | 0.00 | 40 | 1006.8 |
| 20260510012447 | 52 | 12 | 2.0 | 4.0 | 0.00 | 0.00 | 0.00 | 39 | 1006.7 |
| 20260510011943 | 53 | 313 | 1.0 | 8.0 | 0.00 | 0.00 | 0.00 | 38 | 1006.6 |
| 20260510011437 | 53 | 1 | 3.0 | 7.0 | 0.00 | 0.00 | 0.00 | 38 | 1006.5 |
| 20260510010934 | 54 | 4 | 3.0 | 6.0 | 0.00 | 0.00 | 0.00 | 37 | 1006.4 |
| 20260510010431 | 54 | 23 | 4.0 | 7.0 | 0.00 | 0.00 | 0.00 | 37 | 1006.3 |
| 20260510005928 | 55 | 344 | 1.0 | 5.0 | 0.00 | 0.00 | 0.00 | 36 | 1006.4 |
| 20260510005423 | 55 | 7 | 5.0 | 10.0 | 0.00 | 0.00 | 0.00 | 35 | 1006.5 |
| 20260510004921 | 55 | 16 | 6.0 | 13.0 | 0.00 | 0.00 | 0.00 | 34 | 1006.2 |
| 20260510004419 | 56 | 19 | 7.0 | 10.0 | 0.00 | 0.00 | 0.00 | 34 | 1006.1 |
| 20260510003916 | 56 | 30 | 6.0 | 9.0 | 0.00 | 0.00 | 0.00 | 34 | 1006.0 |
| 20260510003413 | 56 | 30 | 3.0 | 14.0 | 0.00 | 0.00 | 0.00 | 34 | 1005.8 |
| 20260510002912 | 56 | 354 | 7.0 | 14.0 | 0.00 | 0.00 | 0.00 | 33 | 1006.0 |
| 20260510002409 | 57 | 20 | 5.0 | 14.0 | 0.00 | 0.00 | 0.00 | 32 | 1006.1 |
| 20260510001906 | 57 | 359 | 4.0 | 14.0 | 0.00 | 0.00 | 0.00 | 32 | 1005.8 |
| 20260510001404 | 57 | 353 | 13.0 | 14.0 | 0.00 | 0.00 | 0.00 | 31 | 1005.5 |
| 20260510000900 | 57 | 36 | 7.0 | 13.0 | 0.00 | 0.00 | 0.00 | 33 | 1005.9 |
| 20260510000357 | 57 | 15 | 11.0 | 16.0 | 0.00 | 0.00 | 0.00 | 32 | 1005.6 |
| 20260509235853 | 57 | 7 | 3.0 | 15.0 | 0.00 | 0.00 | 0.00 | 31 | 1005.6 |
| 20260509235350 | 58 | 29 | 7.0 | 12.0 | 0.00 | 0.00 | 0.00 | 31 | 1005.5 |
| 20260509234846 | 58 | 37 | 5.0 | 15.0 | 0.00 | 0.00 | 0.00 | 31 | 1005.4 |
| 20260509234343 | 58 | 344 | 5.0 | 17.0 | 0.00 | 0.00 | 0.00 | 30 | 1005.4 |
| 20260509233842 | 58 | 358 | 3.0 | 13.0 | 0.00 | 0.00 | 0.00 | 30 | 1005.1 |
| 20260509233340 | 59 | 29 | 7.0 | 16.0 | 0.00 | 0.00 | 0.00 | 31 | 1005.2 |
| 20260509232835 | 59 | 334 | 6.0 | 13.0 | 0.00 | 0.00 | 0.00 | 31 | 1005.0 |
| 20260509232333 | 60 | 21 | 3.0 | 11.0 | 0.00 | 0.00 | 0.00 | 32 | 1004.9 |
| 20260509231829 | 60 | 3 | 7.0 | 13.0 | 0.00 | 0.00 | 0.00 | 32 | 1004.9 |
| 20260509231326 | 60 | 324 | 13.0 | 17.0 | 0.00 | 0.00 | 0.00 | 31 | 1004.8 |
| 20260509230824 | 60 | 314 | 8.0 | 19.0 | 0.00 | 0.00 | 0.00 | 30 | 1004.6 |
| 20260509230321 | 60 | 313 | 7.0 | 19.0 | 0.00 | 0.00 | 0.00 | 31 | 1004.8 |
| 20260509225815 | 60 | 311 | 7.0 | 15.0 | 0.00 | 0.00 | 0.00 | 30 | 1004.7 |
| 20260509225312 | 60 | 324 | 7.0 | 14.0 | 0.00 | 0.00 | 0.00 | 30 | 1004.7 |
| 20260509224809 | 60 | 14 | 7.0 | 24.0 | 0.00 | 0.00 | 0.00 | 30 | 1004.5 |
| 20260509224305 | 60 | 274 | 5.0 | 20.0 | 0.00 | 0.00 | 0.00 | 30 | 1004.5 |
| 20260509223801 | 60 | 308 | 15.0 | 15.0 | 0.00 | 0.00 | 0.00 | 30 | 1004.4 |
| 20260509223259 | 59 | 23 | 8.0 | 17.0 | 0.00 | 0.00 | 0.00 | 29 | 1004.4 |
| 20260509222755 | 60 | 23 | 4.0 | 13.0 | 0.00 | 0.00 | 0.00 | 30 | 1004.4 |
| 20260509222251 | 60 | 0 | 6.0 | 18.0 | 0.00 | 0.00 | 0.00 | 30 | 1004.4 |
| 20260509221747 | 61 | 341 | 6.0 | 16.0 | 0.00 | 0.00 | 0.00 | 30 | 1004.1 |
| 20260509221244 | 60 | 236 | 3.0 | 15.0 | 0.00 | 0.00 | 0.00 | 31 | 1004.0 |
| 20260509220739 | 60 | 14 | 14.0 | 18.0 | 0.00 | 0.00 | 0.00 | 32 | 1004.2 |
| 20260509220236 | 61 | 37 | 4.0 | 15.0 | 0.00 | 0.00 | 0.00 | 33 | 1004.1 |
| 20260509215731 | 60 | 12 | 6.0 | 15.0 | 0.00 | 0.00 | 0.00 | 31 | 1003.9 |
| 20260509215228 | 61 | 325 | 15.0 | 23.0 | 0.00 | 0.00 | 0.00 | 31 | 1003.9 |
| 20260509214725 | 60 | 12 | 5.0 | 14.0 | 0.00 | 0.00 | 0.00 | 32 | 1004.0 |
| 20260509214222 | 61 | 320 | 10.0 | 22.0 | 0.00 | 0.00 | 0.00 | 31 | 1003.9 |
| 20260509213719 | 60 | 2 | 6.0 | 31.0 | 0.00 | 0.00 | 0.00 | 32 | 1003.9 |
| 20260509213214 | 60 | 20 | 19.0 | 21.0 | 0.00 | 0.00 | 0.00 | 31 | 1003.9 |
| 20260509212712 | 60 | 317 | 5.0 | 16.0 | 0.00 | 0.00 | 0.00 | 31 | 1003.9 |
| 20260509212209 | 60 | 19 | 4.0 | 26.0 | 0.00 | 0.00 | 0.00 | 31 | 1004.0 |
| 20260509211705 | 60 | 351 | 4.0 | 14.0 | 0.00 | 0.00 | 0.00 | 31 | 1003.6 |
| 20260509211202 | 62 | 277 | 6.0 | 21.0 | 0.00 | 0.00 | 0.00 | 31 | 1003.7 |
| 20260509210658 | 60 | 304 | 7.0 | 28.0 | 0.00 | 0.00 | 0.00 | 32 | 1003.7 |
| 20260509210156 | 61 | 324 | 7.0 | 13.0 | 0.00 | 0.00 | 0.00 | 32 | 1003.6 |
| 20260509205651 | 61 | 327 | 9.0 | 16.0 | 0.00 | 0.00 | 0.00 | 32 | 1003.6 |
| 20260509205150 | 62 | 300 | 4.0 | 16.0 | 0.00 | 0.00 | 0.00 | 30 | 1003.5 |
| 20260509204646 | 61 | 336 | 6.0 | 15.0 | 0.00 | 0.00 | 0.00 | 35 | 1003.6 |
| 20260509204142 | 60 | 13 | 14.0 | 16.0 | 0.00 | 0.00 | 0.00 | 35 | 1003.6 |
| 20260509203638 | 60 | 0 | 12.0 | 17.0 | 0.00 | 0.00 | 0.00 | 34 | 1003.5 |
| 20260509203132 | 62 | 16 | 9.0 | 13.0 | 0.00 | 0.00 | 0.00 | 34 | 1003.4 |
| 20260509202631 | 60 | 17 | 5.0 | 14.0 | 0.00 | 0.00 | 0.00 | 34 | 1003.6 |
| 20260509202127 | 62 | 26 | 15.0 | 15.0 | 0.00 | 0.00 | 0.00 | 33 | 1003.4 |
| 20260509201622 | 60 | 13 | 9.0 | 17.0 | 0.00 | 0.00 | 0.00 | 34 | 1003.3 |
| 20260509201120 | 59 | 5 | 6.0 | 19.0 | 0.00 | 0.00 | 0.00 | 35 | 1003.2 |
| 20260509200615 | 60 | 13 | 7.0 | 17.0 | 0.00 | 0.00 | 0.00 | 33 | 1003.1 |
| 20260509200111 | 60 | 323 | 7.0 | 18.0 | 0.00 | 0.00 | 0.00 | 34 | 1003.2 |
| 20260509195607 | 61 | 341 | 7.0 | 20.0 | 0.00 | 0.00 | 0.00 | 35 | 1003.2 |
| 20260509195101 | 61 | 325 | 7.0 | 21.0 | 0.00 | 0.00 | 0.00 | 33 | 1003.0 |
| 20260509194601 | 60 | 10 | 5.0 | 17.0 | 0.00 | 0.00 | 0.00 | 35 | 1003.0 |
| 20260509194059 | 61 | 322 | 9.0 | 20.0 | 0.00 | 0.00 | 0.00 | 36 | 1003.1 |
| 20260509193555 | 60 | 1 | 6.0 | 22.0 | 0.00 | 0.00 | 0.00 | 33 | 1003.1 |
| 20260509193051 | 61 | 301 | 22.0 | 28.0 | 0.00 | 0.00 | 0.00 | 33 | 1002.7 |
| 20260509192548 | 60 | 4 | 15.0 | 26.0 | 0.00 | 0.00 | 0.00 | 36 | 1003.0 |
| 20260509192042 | 60 | 357 | 7.0 | 25.0 | 0.00 | 0.00 | 0.00 | 36 | 1002.7 |
| 20260509191537 | 61 | 323 | 5.0 | 13.0 | 0.00 | 0.00 | 0.00 | 36 | 1002.8 |
| 20260509191033 | 60 | 4 | 3.0 | 13.0 | 0.00 | 0.00 | 0.00 | 35 | 1002.6 |
| 20260509190530 | 60 | 320 | 12.0 | 17.0 | 0.00 | 0.00 | 0.00 | 34 | 1003.0 |
| 20260509190028 | 60 | 34 | 4.0 | 15.0 | 0.00 | 0.00 | 0.00 | 38 | 1002.5 |
| 20260509185525 | 60 | 8 | 9.0 | 26.0 | 0.00 | 0.00 | 0.00 | 36 | 1002.6 |
| 20260509185021 | 60 | 7 | 7.0 | 23.0 | 0.00 | 0.00 | 0.00 | 36 | 1002.7 |
| 20260509184520 | 61 | 317 | 5.0 | 21.0 | 0.00 | 0.00 | 0.00 | 37 | 1002.5 |
| 20260509184016 | 60 | 329 | 4.0 | 18.0 | 0.00 | 0.00 | 0.00 | 36 | 1002.6 |
| 20260509183511 | 61 | 17 | 4.0 | 14.0 | 0.00 | 0.00 | 0.00 | 38 | 1002.5 |
| 20260509183007 | 60 | 288 | 5.0 | 19.0 | 0.00 | 0.00 | 0.00 | 38 | 1002.1 |
| 20260509182504 | 59 | 329 | 7.0 | 17.0 | 0.00 | 0.00 | 0.00 | 39 | 1002.7 |
| 20260509182001 | 60 | 27 | 13.0 | 19.0 | 0.00 | 0.00 | 0.00 | 39 | 1002.1 |
| 20260509181459 | 60 | 324 | 8.0 | 20.0 | 0.00 | 0.00 | 0.00 | 38 | 1002.1 |
| 20260509180956 | 60 | 328 | 7.0 | 20.0 | 0.00 | 0.00 | 0.00 | 39 | 1002.2 |
| 20260509180451 | 60 | 162 | 3.0 | 17.0 | 0.00 | 0.00 | 0.00 | 41 | 1002.4 |
| 20260509175949 | 58 | 0 | 15.0 | 17.0 | 0.00 | 0.00 | 0.00 | 43 | 1002.0 |
| 20260509175445 | 59 | 349 | 7.0 | 17.0 | 0.00 | 0.00 | 0.00 | 43 | 1002.1 |
| 20260509174941 | 59 | 307 | 4.0 | 18.0 | 0.00 | 0.00 | 0.00 | 41 | 1002.0 |
| 20260509174437 | 59 | 2 | 6.0 | 20.0 | 0.00 | 0.00 | 0.00 | 43 | 1001.8 |
| 20260509173933 | 59 | 2 | 7.0 | 24.0 | 0.00 | 0.00 | 0.00 | 44 | 1002.0 |
| 20260509173427 | 59 | 31 | 10.0 | 17.0 | 0.00 | 0.00 | 0.00 | 44 | 1002.0 |
| 20260509172924 | 59 | 265 | 4.0 | 15.0 | 0.00 | 0.00 | 0.00 | 43 | 1002.1 |
| 20260509172421 | 58 | 23 | 8.0 | 29.0 | 0.00 | 0.00 | 0.00 | 44 | 1001.7 |
| 20260509171917 | 58 | 20 | 13.0 | 17.0 | 0.00 | 0.00 | 0.00 | 46 | 1002.0 |
| 20260509171413 | 57 | 38 | 5.0 | 15.0 | 0.00 | 0.00 | 0.00 | 49 | 1002.0 |
| 20260509170909 | 57 | 356 | 7.0 | 20.0 | 0.00 | 0.00 | 0.00 | 48 | 1001.9 |
| 20260509170404 | 57 | 359 | 10.0 | 18.0 | 0.00 | 0.00 | 0.00 | 49 | 1002.1 |
| 20260509165900 | 59 | 16 | 9.0 | 22.0 | 0.00 | 0.00 | 0.00 | 46 | 1001.9 |
| 20260509165354 | 57 | 314 | 4.0 | 19.0 | 0.00 | 0.00 | 0.00 | 49 | 1002.1 |
| 20260509164851 | 58 | 316 | 4.0 | 26.0 | 0.00 | 0.00 | 0.00 | 46 | 1002.1 |
| 20260509164346 | 57 | 299 | 8.0 | 24.0 | 0.00 | 0.00 | 0.00 | 54 | 1001.9 |
| 20260509163837 | 57 | 15 | 7.0 | 20.0 | 0.00 | 0.00 | 0.00 | 54 | 1001.7 |
| 20260509163334 | 58 | 15 | 13.0 | 15.0 | 0.00 | 0.00 | 0.00 | 53 | 1001.9 |
| 20260509162834 | 57 | 5 | 4.0 | 13.0 | 0.00 | 0.00 | 0.00 | 54 | 1001.7 |
| 20260509162332 | 58 | 26 | 4.0 | 16.0 | 0.00 | 0.00 | 0.00 | 55 | 1001.8 |
| 20260509161828 | 57 | 340 | 6.0 | 18.0 | 0.00 | 0.00 | 0.00 | 57 | 1001.6 |
| 20260509161319 | 55 | 21 | 11.0 | 19.0 | 0.00 | 0.00 | 0.00 | 60 | 1001.6 |
| 20260509160815 | 56 | 93 | 3.0 | 22.0 | 0.00 | 0.00 | 0.00 | 56 | 1001.8 |
| 20260509160311 | 57 | 0 | 5.0 | 15.0 | 0.00 | 0.00 | 0.00 | 57 | 1001.4 |
| 20260509155806 | 55 | 6 | 5.0 | 23.0 | 0.00 | 0.00 | 0.00 | 59 | 1001.4 |
| 20260509155306 | 55 | 343 | 7.0 | 17.0 | 0.00 | 0.00 | 0.00 | 60 | 1001.5 |
| 20260509154759 | 56 | 29 | 7.0 | 14.0 | 0.00 | 0.00 | 0.00 | 59 | 1001.4 |
| 20260509154256 | 56 | 19 | 9.0 | 22.0 | 0.00 | 0.00 | 0.00 | 58 | 1001.1 |
| 20260509153753 | 56 | 9 | 21.0 | 21.0 | 0.00 | 0.00 | 0.00 | 58 | 1001.4 |
| 20260509153249 | 56 | 310 | 7.0 | 17.0 | 0.00 | 0.00 | 0.00 | 60 | 1001.4 |
| 20260509152745 | 55 | 349 | 7.0 | 12.0 | 0.00 | 0.00 | 0.00 | 63 | 1001.2 |
| 20260509152242 | 54 | 3 | 5.0 | 20.0 | 0.00 | 0.00 | 0.00 | 62 | 1000.9 |
| 20260509151739 | 54 | 15 | 11.0 | 17.0 | 0.00 | 0.00 | 0.00 | 63 | 1000.9 |
| 20260509151235 | 55 | 350 | 9.0 | 20.0 | 0.00 | 0.00 | 0.00 | 64 | 1000.9 |
| 20260509150734 | 54 | 5 | 6.0 | 23.0 | 0.00 | 0.00 | 0.00 | 66 | 1000.6 |
| 20260509150231 | 55 | 318 | 10.0 | 20.0 | 0.00 | 0.00 | 0.00 | 62 | 1000.5 |
| 20260509145728 | 55 | 323 | 5.0 | 20.0 | 0.00 | 0.00 | 0.00 | 65 | 1000.5 |
| 20260509145223 | 54 | 24 | 10.0 | 13.0 | 0.00 | 0.00 | 0.00 | 67 | 1000.3 |
| 20260509144720 | 54 | 144 | 5.0 | 20.0 | 0.00 | 0.00 | 0.00 | 68 | 1000.3 |
| 20260509144217 | 54 | 352 | 5.0 | 18.0 | 0.00 | 0.00 | 0.00 | 67 | 1000.3 |
| 20260509143714 | 54 | 317 | 7.0 | 18.0 | 0.00 | 0.00 | 0.00 | 68 | 1000.2 |
| 20260509143211 | 54 | 26 | 8.0 | 18.0 | 0.00 | 0.00 | 0.00 | 67 | 1000.2 |
| 20260509142707 | 55 | 1 | 5.0 | 16.0 | 0.00 | 0.00 | 0.00 | 64 | 1000.0 |
| 20260509142204 | 54 | 350 | 7.0 | 15.0 | 0.00 | 0.00 | 0.00 | 64 | 1000.1 |
| 20260509141659 | 54 | 330 | 4.0 | 16.0 | 0.00 | 0.00 | 0.00 | 67 | 999.8 |
| 20260509141156 | 54 | 4 | 8.0 | 17.0 | 0.00 | 0.00 | 0.00 | 67 | 1000.0 |
| 20260509140653 | 55 | 227 | 4.0 | 16.0 | 0.00 | 0.00 | 0.00 | 68 | 999.8 |
| 20260509140151 | 54 | 341 | 9.0 | 15.0 | 0.00 | 0.00 | 0.00 | 68 | 999.7 |
| 20260509135648 | 54 | 339 | 6.0 | 17.0 | 0.00 | 0.00 | 0.00 | 67 | 999.5 |
| 20260509135146 | 54 | 345 | 4.0 | 18.0 | 0.00 | 0.00 | 0.00 | 67 | 999.6 |
| 20260509134642 | 54 | 279 | 6.0 | 16.0 | 0.00 | 0.00 | 0.00 | 65 | 999.4 |
| 20260509134140 | 54 | 87 | 2.0 | 15.0 | 0.00 | 0.00 | 0.00 | 65 | 999.6 |
| 20260509133637 | 54 | 264 | 2.0 | 8.0 | 0.00 | 0.00 | 0.00 | 63 | 999.5 |
| 20260509133134 | 54 | 319 | 6.0 | 11.0 | 0.00 | 0.00 | 0.00 | 60 | 999.2 |
| 20260509132632 | 55 | 45 | 3.0 | 12.0 | 0.00 | 0.00 | 0.00 | 58 | 999.4 |
| 20260509132130 | 54 | 279 | 2.0 | 3.0 | 0.00 | 0.00 | 0.00 | 57 | 999.1 |
| 20260509131626 | 54 | 20 | 1.0 | 7.0 | 0.00 | 0.00 | 0.00 | 56 | 998.9 |
| 20260509131123 | 55 | 306 | 2.0 | 4.0 | 0.00 | 0.00 | 0.00 | 54 | 999.2 |
| 20260509130619 | 54 | 44 | 1.0 | 4.0 | 0.00 | 0.00 | 0.00 | 54 | 999.0 |
| 20260509130115 | 52 | 193 | 2.0 | 4.0 | 0.00 | 0.00 | 0.00 | 56 | 999.0 |
| 20260509125612 | 52 | 341 | 3.0 | 5.0 | 0.00 | 0.00 | 0.00 | 56 | 999.1 |
| 20260509125109 | 51 | 245 | 2.0 | 3.0 | 0.00 | 0.00 | 0.00 | 57 | 999.4 |
| 20260509124605 | 51 | 275 | 3.0 | 5.0 | 0.00 | 0.00 | 0.00 | 57 | 998.8 |
| 20260509124103 | 50 | 173 | 1.0 | 4.0 | 0.00 | 0.00 | 0.00 | 60 | 999.0 |
| 20260509123600 | 50 | 20 | 1.0 | 3.0 | 0.00 | 0.00 | 0.00 | 59 | 998.7 |
| 20260509123057 | 50 | 4 | 2.0 | 5.0 | 0.00 | 0.00 | 0.00 | 59 | 998.9 |
| 20260509122553 | 49 | 3 | 1.0 | 2.0 | 0.00 | 0.00 | 0.00 | 61 | 998.5 |
| 20260509122050 | 48 | 228 | 1.0 | 3.0 | 0.00 | 0.00 | 0.00 | 62 | 998.5 |
| 20260509121546 | 48 | 269 | 0.0 | 2.0 | 0.00 | 0.00 | 0.00 | 64 | 998.5 |
| 20260509121048 | 48 | 199 | 0.0 | 3.0 | 0.00 | 0.00 | 0.00 | 63 | 998.5 |
| 20260509120542 | 48 | 172 | 0.0 | 3.0 | 0.00 | 0.00 | 0.00 | 63 | 998.3 |
| 20260509120041 | 48 | 253 | 2.0 | 4.0 | 0.00 | 0.00 | 0.00 | 63 | 998.5 |
| 20260509115537 | 48 | 304 | 3.0 | 9.0 | 0.00 | 0.00 | 0.00 | 63 | 998.7 |
| 20260509115035 | 48 | 2 | 2.0 | 3.0 | 0.00 | 0.00 | 0.00 | 63 | 998.0 |
| 20260509114533 | 47 | 280 | 0.0 | 3.0 | 0.00 | 0.00 | 0.00 | 65 | 998.0 |
| 20260509114031 | 48 | 197 | 0.0 | 4.0 | 0.00 | 0.00 | 0.00 | 61 | 998.2 |
| 20260509113529 | 48 | 0 | 1.0 | 3.0 | 0.00 | 0.00 | 0.00 | 61 | 998.4 |
| 20260509113027 | 48 | 324 | 0.0 | 5.0 | 0.00 | 0.00 | 0.00 | 61 | 998.2 |
| 20260509112523 | 47 | 315 | 3.0 | 4.0 | 0.00 | 0.00 | 0.00 | 61 | 998.3 |
| 20260509112020 | 47 | 139 | 2.0 | 6.0 | 0.00 | 0.00 | 0.00 | 62 | 998.4 |
| 20260509111517 | 47 | 266 | 2.0 | 9.0 | 0.00 | 0.00 | 0.00 | 61 | 998.0 |
| 20260509111014 | 47 | 301 | 2.0 | 3.0 | 0.00 | 0.00 | 0.00 | 62 | 997.8 |
| 20260509110511 | 47 | 222 | 0.0 | 3.0 | 0.00 | 0.00 | 0.00 | 61 | 997.7 |
| 20260509110008 | 47 | 287 | 1.0 | 5.0 | 0.00 | 0.00 | 0.00 | 61 | 998.1 |
| 20260509105506 | 47 | 291 | 2.0 | 6.0 | 0.00 | 0.00 | 0.00 | 60 | 998.1 |
| 20260509105003 | 48 | 255 | 0.0 | 4.0 | 0.00 | 0.00 | 0.00 | 60 | 997.9 |
| 20260509104500 | 48 | 327 | 5.0 | 9.0 | 0.00 | 0.00 | 0.00 | 59 | 998.0 |
| 20260509103957 | 48 | 298 | 4.0 | 17.0 | 0.00 | 0.00 | 0.00 | 58 | 998.0 |
| 20260509103455 | 48 | 313 | 9.0 | 16.0 | 0.00 | 0.00 | 0.00 | 59 | 998.3 |
| 20260509102953 | 48 | 325 | 2.0 | 3.0 | 0.00 | 0.00 | 0.00 | 59 | 997.3 |
| 20260509102450 | 48 | 252 | 1.0 | 3.0 | 0.00 | 0.00 | 0.00 | 58 | 996.9 |
| 20260509101946 | 48 | 243 | 2.0 | 4.0 | 0.00 | 0.00 | 0.00 | 57 | 996.8 |
| 20260509101442 | 48 | 239 | 2.0 | 4.0 | 0.00 | 0.00 | 0.00 | 58 | 996.7 |
| 20260509100940 | 48 | 237 | 2.0 | 4.0 | 0.00 | 0.00 | 0.00 | 58 | 997.0 |
| 20260509100437 | 47 | 233 | 3.0 | 4.0 | 0.00 | 0.00 | 0.00 | 60 | 997.0 |
| 20260509095934 | 47 | 217 | 2.0 | 4.0 | 0.00 | 0.00 | 0.00 | 60 | 997.1 |
| 20260509095431 | 47 | 230 | 2.0 | 4.0 | 0.00 | 0.00 | 0.00 | 57 | 997.0 |
| 20260509094928 | 47 | 222 | 3.0 | 5.0 | 0.00 | 0.00 | 0.00 | 57 | 997.1 |
| 20260509094424 | 47 | 226 | 2.0 | 4.0 | 0.00 | 0.00 | 0.00 | 58 | 997.3 |
| 20260509093922 | 47 | 234 | 3.0 | 4.0 | 0.00 | 0.00 | 0.00 | 58 | 997.2 |
| 20260509093419 | 48 | 239 | 2.0 | 5.0 | 0.00 | 0.00 | 0.00 | 56 | 997.3 |
| 20260509092917 | 48 | 227 | 2.0 | 4.0 | 0.00 | 0.00 | 0.00 | 56 | 997.4 |
| 20260509092415 | 48 | 263 | 2.0 | 4.0 | 0.00 | 0.00 | 0.00 | 55 | 997.4 |
| 20260509091914 | 47 | 225 | 2.0 | 4.0 | 0.00 | 0.00 | 0.00 | 57 | 997.2 |
| 20260509091410 | 46 | 216 | 1.0 | 3.0 | 0.00 | 0.00 | 0.00 | 59 | 997.3 |
| 20260509090907 | 46 | 231 | 0.0 | 2.0 | 0.00 | 0.00 | 0.00 | 59 | 997.4 |
| 20260509090404 | 47 | 220 | 0.0 | 2.0 | 0.00 | 0.00 | 0.00 | 57 | 997.3 |
| 20260509085902 | 47 | 287 | 0.0 | 2.0 | 0.00 | 0.00 | 0.00 | 56 | 997.5 |
| 20260509085359 | 47 | 253 | 0.0 | 2.0 | 0.00 | 0.00 | 0.00 | 58 | 997.3 |
| 20260509084855 | 47 | 201 | 1.0 | 3.0 | 0.00 | 0.00 | 0.00 | 58 | 997.3 |
| 20260509084352 | 47 | 239 | 1.0 | 2.0 | 0.00 | 0.00 | 0.00 | 58 | 997.4 |
| 20260509083850 | 48 | 236 | 0.0 | 3.0 | 0.00 | 0.00 | 0.00 | 56 | 997.3 |
| 20260509083346 | 48 | 195 | 0.0 | 3.0 | 0.00 | 0.00 | 0.00 | 57 | 997.2 |
| 20260509082843 | 48 | 198 | 2.0 | 3.0 | 0.00 | 0.00 | 0.00 | 56 | 997.0 |
| 20260509082340 | 48 | 210 | 2.0 | 3.0 | 0.00 | 0.00 | 0.00 | 56 | 997.3 |
| 20260509081837 | 48 | 214 | 2.0 | 3.0 | 0.00 | 0.00 | 0.00 | 55 | 997.1 |
| 20260509081334 | 49 | 220 | 1.0 | 2.0 | 0.00 | 0.00 | 0.00 | 54 | 997.2 |
| 20260509080832 | 48 | 172 | 0.0 | 2.0 | 0.00 | 0.00 | 0.00 | 55 | 997.1 |
| 20260509080329 | 49 | 213 | 1.0 | 3.0 | 0.00 | 0.00 | 0.00 | 55 | 997.1 |
| 20260509075828 | 49 | 241 | 0.0 | 1.0 | 0.00 | 0.00 | 0.00 | 53 | 997.3 |
| 20260509075324 | 49 | 222 | 0.0 | 2.0 | 0.00 | 0.00 | 0.00 | 54 | 997.3 |
| 20260509074821 | 49 | 226 | 2.0 | 3.0 | 0.00 | 0.00 | 0.00 | 53 | 997.4 |
| 20260509074319 | 48 | 228 | 0.0 | 1.0 | 0.00 | 0.00 | 0.00 | 54 | 997.4 |
| 20260509073815 | 48 | 229 | 1.0 | 2.0 | 0.00 | 0.00 | 0.00 | 53 | 997.4 |
| 20260509073312 | 48 | 199 | 0.0 | 2.0 | 0.00 | 0.00 | 0.00 | 54 | 997.6 |
| 20260509072808 | 48 | 236 | 1.0 | 2.0 | 0.00 | 0.00 | 0.00 | 55 | 997.7 |
| 20260509072306 | 48 | 255 | 0.0 | 2.0 | 0.00 | 0.00 | 0.00 | 54 | 997.7 |
| 20260509071802 | 48 | 226 | 2.0 | 3.0 | 0.00 | 0.00 | 0.00 | 55 | 997.8 |
| 20260509071259 | 47 | 248 | 0.0 | 2.0 | 0.00 | 0.00 | 0.00 | 57 | 997.9 |
| 20260509070755 | 47 | 310 | 0.0 | 2.0 | 0.00 | 0.00 | 0.00 | 56 | 997.8 |
| 20260509070252 | 48 | 248 | 0.0 | 1.0 | 0.00 | 0.00 | 0.00 | 55 | 997.8 |
| 20260509065748 | 48 | 243 | 0.0 | 2.0 | 0.00 | 0.00 | 0.00 | 54 | 998.0 |
| 20260509065245 | 49 | 315 | 0.0 | 3.0 | 0.00 | 0.00 | 0.00 | 54 | 997.9 |
| 20260509064741 | 49 | 290 | 0.0 | 3.0 | 0.00 | 0.00 | 0.00 | 53 | 998.1 |
| 20260509064239 | 50 | 323 | 1.0 | 2.0 | 0.00 | 0.00 | 0.00 | 52 | 997.8 |
| 20260509063736 | 51 | 0 | 0.0 | 0.0 | 0.00 | 0.00 | 0.00 | 50 | 997.6 |
| 20260509063232 | 51 | 318 | 1.0 | 3.0 | 0.00 | 0.00 | 0.00 | 49 | 997.8 |
| 20260509062730 | 52 | 335 | 2.0 | 3.0 | 0.00 | 0.00 | 0.00 | 48 | 997.5 |
| 20260509062227 | 53 | 324 | 2.0 | 5.0 | 0.00 | 0.00 | 0.00 | 47 | 997.9 |